Погода в Котельниче

Погода в Котельниче : погода сейчас, прогноз погоды и архив. Всё, что Вы хотите узнать о погоде в Котельниче!

Хотите узнать прогноз погоды в Котельниче? Тогда Вам сюда: Погода в Котельниче

Поиск расширенной информации на нашем сайте:

Другие новости

Новости СМИ2

Главная страница сайта

Новости сайта

03.07.2017

Напоминаем, что на нашем специализированном сайте Метеоцентр.Азия вы можете получить высокодетализированные автоматические прогнозы погоды по пунктам России, СНГ и мира в авиационном формате (включающие направление и скорость ветра, видимость, явления погоды, количество и форму облачности, нижнюю и верхнюю границу облачности).

Рекомендуем: Далее

Погода в Котельниче - сегодня

Время (UTC), дата Ветер
(°,м/с) 
Видим.   Явления Облачность Т
(°С)
Тd
(°С)
f(%) Тe
(°С)
Pmin
(гПа)
dP
(гПа)
Po
(мм)
O2
(г/м3)
Тmin Tmax R s Состояние
почвы
03 11.02.18 140 (ЮВ) 2-3{03}  10 км    ясно 
-12 -14 85 -14  1032.5  -0.6  762  322  -13.5      61  неравномерный
сухой снег
100% 
15 11.02.18 тихо () -0{01}  10 км    6/0 средняя, верхняя 
[Ac trans|Ci fib]
-10.5 -13.3 80 -11  1030.3  -0.4  760  320    -4.5       
18 11.02.18 320 (СЗ) 1-1{02}  10 км    ясно 
-15.8 -18.5 80 -16  1030.2  -0.5  760  326           
21 11.02.18 тихо () -0{01}  10 км    ясно 
-17.5 -20.1 80 -18  1030.2  -0.2  760  329           
03 12.02.18 тихо () -0{01}  10 км    ясно 
-21 -24.3 75 -21  1030.3  -0.1  760  333  -21.1      61  неравномерный
сухой снег
100% 
18 12.02.18 330 (СЗ) 1-1{02}  10 км    ясно 
-17.3 -19.9 80 -17  1029.6  759  328           
21 12.02.18 340 (С) 1-2{02}  10 км    ясно 
-19.2 -21.8 80 -19  1030.5  0.7  760  331           
03 13.02.18 330 (СЗ) 1-1{02}  10 км    ясно 
-22.9 -26.2 74 -23  1032  0.7  761  336  -23.2      61  неравномерный
сухой снег
100% 
09 13.02.18 340 (С) 2-2{02}  16000 м    ясно 
-14.2 -18.5 70 -16  1032.5  0.8  762  325           
18 13.02.18 340 (С) 1-1{02}  10 км    ясно 
-19.1 -21.7 80 -19  1033.4  0.5  762  332           
21 13.02.18 360 (С) 1-1{02}  10 км    ясно 
-22 -25.2 75 -22  1033.9  0.3  762  336           
03 14.02.18 340 (С) 1-1{02}  10 км    ясно 
-23.7 -26.8 76 -24  1035.6  0.6  763  339  -24.5      61  неравномерный
сухой снег
100% 
09 14.02.18 340 (С) 1-1{01}  18000 м    ясно 
-14 -17.5 75 -14  1037  1.2  765  326           
18 14.02.18 330 (СЗ) 1-1{01}  10 км    ясно 
-18.8 -22.1 75 -19  1038.1  0.6  766  333           
21 14.02.18 340 (С) 1-1{01}  10 км    ясно 
-20.4 -23.7 75 -21  1038.5  0.2  766  335           
03 15.02.18 тихо () -0{01}  10 км    3/0 верхняя 
[Ci fib]
-22.8 -26 75 -23  1040  0.3  767  339  -23.6      61  неравномерный
сухой снег
100% 
09 15.02.18 160 (Ю) 1-1{02}  14000 м    ясно 
-9.8 -15.1 65 -10  1040.3  0.5  767  322           
18 15.02.18 170 (Ю) 1-1{02}  10 км    ясно 
-15.7 -18.4 80 -16  1040.8  768  330           
21 15.02.18 190 (Ю) 1-2{02}  10 км    ясно 
-16.5 -19.1 80 -17  1041.3  0.5  768  331           
03 16.02.18 180 (Ю) 1-2{02}  10 км    ясно 
-20.6 -23.9 75 -21  1041.7  -0.2  768  336  -21.1      61  неравномерный
сухой снег
100% 
15 16.02.18 180 (Ю) 3-5{06}  4000 м  слаб. снег  10/0 средняя 
[Ac As]
-8.6 -13.4 68 -11  1038.2  -1  766  320    -6.6  0.0     
03 17.02.18 190 (Ю) 2-5{05}  4000 м  слаб. снег  10/10 450 м 
[Frnb|Ns]
-7.5 -11 76 -9  1035.6  -0.3  764  318  -8.8    0.3  61  неравномерный
сухой снег
100% 
15 17.02.18 170 (Ю) 2-4{06}  10 км    4/4 300 м 
[Sc]
-6.7 -11.3 70 -8  1032.6  -0.6  762  316    -4.2  0.0     
18 17.02.18 180 (Ю) 2-4{06}  10 км    ясно 
-9 -12.4 76 -11  1032.3  -0.5  762  319           
03 18.02.18 180 (Ю) 3-5{05}  4000 м  слаб. снег  10/10 360 м 
[Frnb|Ns]
-9.7 -11.8 85 -13  1030  -0.8  760  319  -9.9    0.5  61  неравномерный
сухой снег
100% 
Время (UTC), дата Ветер
(°,м/с) 
Видим.   Явления Облачность Т
(°С)
Тd
(°С)
f(%) Тe
(°С)
Pmin
(гПа)
dP
(гПа)
Po
(мм)
O2
(г/м3)
Тmin Tmax R s Состояние
почвы

Для получения пояснительной информации подведите курсор к названию столбца.

ПОГОДА в Котельниче - архив

Всё, что Вы хотите узнать о погоде в Котельниче - удобно и подробно!

Выберите нужную дату (начиная с 1 января 2015* года) и нажмите кнопку "Найти".
Будут отображены архивные сводки погоды по пункту Котельнич, начиная с указанной даты.


Отображать данные в формате CSV (для использования в таблицах Excel)


Внимание! Наш архив погоды предназначен исключительно для личного некоммерческого использования в познавательных целях. Если Вам необходимы официальные справки о состоянии погоды (для производственных, юридических, коммерческих и т.п. целей), обращайтесь в органы Росгидромета.

*Примечание: данная дата относится к архиву по метеостанциям СССР (Россия, СНГ, Балтия).
Архив по метеостанциям Зарубежной Европы и Азии (кроме Китая) хранится 10 дней, по другим регионам земного шара (Китай, Африка, Америка, Австралия, Океания) - 1 день.

Котельнич - район местоположения метеостанции


Название, широта, долгота, высота метеостанции:
Котельнич 58.3°ш. 48.3°д. 127 м над ур. моря [Российская Федерация]

Дополнительная информация

В oтличие oт бoльшинства пoгoдных сайтoв мы публикуем пoдрoбную метеoинфoрмацию в детальнoм прoфессиoнальнoм фoрмате.

Характеристики температуры и влажнoсти вoздуха измеряются на высoте 2 м в тени вдали oт зданий и деревьев.
Скoрoсть ветра измеряется на высoте 10 м (на урoвне рoста челoвека скoрoсть ветра ниже в 1.5-2 раза). Если метеoстанция нахoдится в гoрoде или в лесу, тo скoрoсть ветра занижена на 2-4 м/с пo сравнению с oткрытым местoм. Скoрoсть ветра над акватoриями крупных рек и oзёр, а также на вершинах хoлмoв на 2-5 м/с выше, чем в oбычных услoвиях.
Атмoсфернoе давление в разных тoчках местнoсти мoжет значительнo oтличаться oт давления на метеoстанции, в зависимoсти oт услoвий рельефа (при пoдъёме на 10 м давление пoнижается примернo на 1 мм рт.ст.).